Location: Brede
(50.9167°N, 0.6000°E)
Time: 09:48:43
(UTC+00:00)

Tiros 1 - Pass Details

Date: 30 November 2020
Orbit: 630 x 663 km, 48.4° (Epoch: 16 January)

Event Time Altitude Azimuth Distance (km) Brightness Sun altitude
Rises 17:16:55 0° 262° (W) 2,992 12.4 -12.3°
Reaches altitude 10° 17:19:17 10° 259° (W) 2,078 11.2 -12.6°
Maximum altitude 17:24:02 66° 178° (S) 721 7.4 -13.3°
Enters shadow 17:27:31 18° 100° (E) 1,599 8.6 -13.9°
